Flag for India Weather past 2 weeks in Navi Mumbai, Maharashtra, India

Now
75 °F

Passing clouds.


Feels Like: 77 °F
Forecast: 67 / 82 °F
Wind: 7 mph from Southwest

Location: Bombay / Santacruz

Current Time: Mar 2, 2015 at 5:49:15 AM

Latest Report: Mar 2, 2015 at 4:40 AM


Visibility: 2 mi

Pressure: 29.80 "Hg

Humidity: 74%

Dew point: 66 °F

Location of Navi MumbaiLocation

Historic Weather in Navi Mumbai — Graph

°F

Navi Mumbai temperature yesterday

Maximum temperature yesterday: 81 °F (at 2:40 PM)
Minimum temperature yesterday: 68 °F (at 12:40 AM)
Average temperature yesterday: 74 °F

Past Weeks' High & Low Weather Summary

 TemperatureHumidityPressure
High102 °F (Feb 21, 3:40 PM)100% (Feb 27, 4:40 AM)29.98 "Hg (Feb 27, 4:40 AM)
Low68 °F (Feb 28, 11:40 PM)12% (Feb 21, 3:40 PM)29.71 "Hg (Mar 1, 4:40 PM)
Average80 °F61%29.87 "Hg
* Reported Feb 15 3:40 AM — Mar 2 3:40 AM, Navi Mumbai, Weather by CustomWeather, © 2015

Note: Actual official high and low records may vary slightly from our data, if they occured in-between our weather recording intervals... More about our weather records

Advertising

Navi Mumbai weather history for previous 24 hours

 ConditionsComfort  
Time TempWeatherWind HumidityBarometerVisibility
3:40 AM
Mon, Mar 2
72 °FPassing clouds.No wind73%29.80 "Hg2 mi
1:40 AM77 °FPassing clouds.10 mph65%29.83 "Hg2 mi
12:40 AM79 °FPassing clouds.10 mph61%29.86 "Hg2 mi
11:40 PM
Sun, Mar 1
79 °FPassing clouds.10 mph58%29.86 "Hg2 mi
10:40 PM77 °FPassing clouds.10 mph57%29.86 "Hg2 mi
9:40 PM79 °FPassing clouds.12 mph61%29.83 "Hg2 mi
8:40 PM79 °FPassing clouds.12 mph65%29.83 "Hg2 mi
7:40 PM79 °FPassing clouds.13 mph65%29.80 "Hg2 mi
6:40 PM77 °FScattered clouds.14 mph79%29.77 "Hg2 mi
4:40 PM79 °FScattered clouds.12 mph70%29.71 "Hg4 mi
3:40 PM79 °FBroken clouds.9 mph70%29.74 "Hg3 mi
2:40 PM81 °FBroken clouds.15 mph66%29.77 "Hg4 mi
1:40 PM79 °FBroken clouds.12 mph65%29.77 "Hg4 mi
12:40 PM79 °FBroken clouds.9 mph65%29.80 "Hg4 mi
10:40 AM75 °FBroken clouds.12 mph74%29.83 "Hg4 mi
8:40 AM70 °FBroken clouds.7 mph83%29.80 "Hg2 mi
6:40 AM68 °FPartly cloudy.5 mph83%29.77 "Hg1 mi
5:40 AM68 °FPartly cloudy.7 mph83%29.74 "Hg2 mi
Weather by CustomWeather, © 2015

See weather overviewHow to use our weather pages